map of BES home
BES - Airport
Location
City:  Brest, Bretagne, France
Name:Guipavas
ICAO:LFRB
IATA:BES

Details
Type:Airport (Aerodrome, Airfield)
Use:Public/Civil, International (customs port of entry)
Latitude:4826'50"N (48.447222)
Longitude:425'18"W (-4.421666)
Elevation:325 ft (99 m)
Variation:1.53W (WMM2015 magnetic declination)
0.14 annual change
Runways:2
Longest:10171 × 148 ft (3100 × 45 m), paved

Time
Time Zone:UTC+1 (DST+2)
Local Time:

Weather
METAR:LFRB 220430Z AUTO 19008KT CAVOK 11/11 Q1011 TEMPO 0500 FG BECMG BKN010
TAF:LFRB 212300Z 2200/2306 20009KT 3000 BR BKN005 PROB30
TEMPO 2203/2206 0500 FG OVC002
BECMG 2206/2209 5000 BKN010
BECMG 2209/2212 9999 NSW BKN018
BECMG 2218/2221 OVC010
BECMG 2303/2306 BKN016

Related Locations
Nearby:
Farthest:NZTI: 12132 mi / 19525 km
Taieri, OTA, NZ

Find:

   beyond  
but within

Other Information
Maps:
NOTAMs:
Links:
Sources:

  
flag of France
flag of Bretagne
  

Sectional Chart

Flight Planning
at skyvector.com

Satellite Image

Google Maps Satellite view

 

Copyright © 2004-2018 Karl L. Swartz. All rights reserved.
The Great Circle Mapper name and logo are trademarks of the Great Circle Mapper.
All other trademarks mentioned herein belong to their respective owners.
Please see credits for attibutions and further copyright information.

  Follow gcmap on Facebook Follow gcmap on Twitter Follow gcmap on Google+ GCmap on LinkedIn

hCard Microformat

Geo Microformat